Time,TemperatureF,DewpointF,PressureIn,WindDirection,WindDirectionDegrees,WindSpeedMPH,WindSpeedGustMPH,Humidity,HourlyPrecipIn,Conditions,Clouds,dailyrainin,SoftwareType,DateUTC
2013-12-25 00:02:00,37.6,31.1,30.21,SSE,161,5.0,11.0,77,0.00,,,0.00,WeatherCatV1.15B25,2013-12-25 06:02:00,
2013-12-25 00:07:00,37.9,31.0,30.21,South,190,4.0,7.0,76,0.00,,,0.00,WeatherCatV1.15B25,2013-12-25 06:07:00,
2013-12-25 00:12:00,38.1,31.2,30.21,SSE,165,6.0,7.0,76,0.00,,,0.00,WeatherCatV1.15B25,2013-12-25 06:12:00,
2013-12-25 00:17:00,38.2,31.0,30.21,SSE,164,5.0,7.0,75,0.00,,,0.00,WeatherCatV1.15B25,2013-12-25 06:17:00,
2013-12-25 00:22:00,38.2,31.0,30.21,SSE,161,5.0,5.0,75,0.00,,,0.00,WeatherCatV1.15B25,2013-12-25 06:22:00,
2013-12-25 00:27:00,38.2,31.0,30.21,SSE,148,4.0,7.0,75,0.00,,,0.00,WeatherCatV1.15B25,2013-12-25 06:27:00,
2013-12-25 00:32:00,38.2,31.0,30.21,SSE,150,3.0,7.0,75,0.00,,,0.00,WeatherCatV1.15B25,2013-12-25 06:32:00,
2013-12-25 00:37:00,38.2,31.0,30.21,SSE,163,5.0,7.0,75,0.00,,,0.00,WeatherCatV1.15B25,2013-12-25 06:37:00,
2013-12-25 00:42:00,38.2,31.0,30.21,SSE,165,3.0,7.0,75,0.00,,,0.00,WeatherCatV1.15B25,2013-12-25 06:42:00,
2013-12-25 00:47:00,38.2,31.0,30.21,SE,144,3.0,5.0,75,0.00,,,0.00,WeatherCatV1.15B25,2013-12-25 06:47:00,
2013-12-25 00:52:00,38.2,31.0,30.21,South,175,5.0,5.0,75,0.00,,,0.00,WeatherCatV1.15B25,2013-12-25 06:52:00,
2013-12-25 00:57:00,38.2,31.0,30.21,SSE,153,4.0,7.0,75,0.00,,,0.00,WeatherCatV1.15B25,2013-12-25 06:57:00,
2013-12-25 01:02:00,38.2,31.0,30.21,SSE,156,3.0,6.0,75,0.00,,,0.00,WeatherCatV1.15B25,2013-12-25 07:02:00,
2013-12-25 01:07:00,38.2,31.0,30.21,SSE,148,2.0,7.0,75,0.00,,,0.00,WeatherCatV1.15B25,2013-12-25 07:07:00,
2013-12-25 01:12:00,38.1,30.9,30.21,ESE,123,2.0,4.0,75,0.00,,,0.00,WeatherCatV1.15B25,2013-12-25 07:12:00,
2013-12-25 01:17:00,37.9,30.7,30.22,SSE,166,1.0,4.0,75,0.00,,,0.00,WeatherCatV1.15B25,2013-12-25 07:17:00,
2013-12-25 01:20:00,37.9,30.7,30.22,South,169,1.0,5.0,75,0.00,,,0.00,WeatherCatV1.15B25,2013-12-25 07:20:00,
2013-12-25 01:25:00,37.7,30.8,30.22,SSE,161,3.0,6.0,76,0.00,,,0.00,WeatherCatV1.15B25,2013-12-25 07:25:00,
2013-12-25 01:30:00,37.4,30.5,30.23,SSE,156,4.0,6.0,76,0.00,,,0.00,WeatherCatV1.15B25,2013-12-25 07:30:00,
2013-12-25 01:35:00,37.3,30.4,30.23,SSE,168,3.0,6.0,76,0.00,,,0.00,WeatherCatV1.15B25,2013-12-25 07:35:00,
2013-12-25 01:40:00,37.3,30.8,30.23,SSE,165,2.0,5.0,77,0.00,,,0.00,WeatherCatV1.15B25,2013-12-25 07:40:00,
2013-12-25 01:45:00,37.3,30.8,30.22,SE,134,2.0,5.0,77,0.00,,,0.00,WeatherCatV1.15B25,2013-12-25 07:45:00,
2013-12-25 01:50:00,37.3,30.8,30.22,SSE,159,4.0,6.0,77,0.00,,,0.00,WeatherCatV1.15B25,2013-12-25 07:50:00,
2013-12-25 01:55:00,37.3,30.8,30.22,South,182,9.0,10.0,77,0.00,,,0.00,WeatherCatV1.15B25,2013-12-25 07:55:00,
2013-12-25 02:00:00,37.4,30.9,30.22,SSE,155,3.0,6.0,77,0.00,,,0.00,WeatherCatV1.15B25,2013-12-25 08:00:00,
2013-12-25 02:05:00,37.5,31.0,30.22,SE,136,2.0,6.0,77,0.00,,,0.00,WeatherCatV1.15B25,2013-12-25 08:05:00,
2013-12-25 02:10:00,37.5,31.0,30.22,South,169,3.0,5.0,77,0.00,,,0.00,WeatherCatV1.15B25,2013-12-25 08:10:00,
2013-12-25 02:15:00,37.5,31.0,30.23,SSE,150,1.0,5.0,77,0.00,,,0.00,WeatherCatV1.15B25,2013-12-25 08:15:00,
2013-12-25 02:20:00,37.4,30.9,30.23,South,171,1.0,6.0,77,0.00,,,0.00,WeatherCatV1.15B25,2013-12-25 08:20:00,
2013-12-25 02:25:00,37.5,31.0,30.23,SE,144,3.0,5.0,77,0.00,,,0.00,WeatherCatV1.15B25,2013-12-25 08:25:00,
2013-12-25 02:30:00,37.5,31.0,30.23,SSE,167,3.0,5.0,77,0.00,,,0.00,WeatherCatV1.15B25,2013-12-25 08:30:00,
2013-12-25 02:35:00,37.5,31.0,30.23,South,172,4.0,6.0,77,0.00,,,0.00,WeatherCatV1.15B25,2013-12-25 08:35:00,
2013-12-25 02:40:00,37.6,31.1,30.23,SSE,155,4.0,6.0,77,0.00,,,0.00,WeatherCatV1.15B25,2013-12-25 08:40:00,
2013-12-25 02:45:00,37.6,31.1,30.23,South,169,2.0,7.0,77,0.00,,,0.00,WeatherCatV1.15B25,2013-12-25 08:45:00,
2013-12-25 02:50:00,37.6,31.1,30.23,SSE,157,4.0,5.0,77,0.00,,,0.00,WeatherCatV1.15B25,2013-12-25 08:50:00,
2013-12-25 02:55:00,37.6,31.1,30.23,SSE,157,4.0,6.0,77,0.00,,,0.00,WeatherCatV1.15B25,2013-12-25 08:55:00,
2013-12-25 03:00:00,37.7,31.2,30.22,SSE,157,2.0,5.0,77,0.00,,,0.00,WeatherCatV1.15B25,2013-12-25 09:00:00,
2013-12-25 03:05:00,37.7,31.5,30.22,SE,144,4.0,6.0,78,0.00,,,0.00,WeatherCatV1.15B25,2013-12-25 09:05:00,
2013-12-25 03:10:00,37.6,31.4,30.22,SSE,151,2.0,5.0,78,0.00,,,0.00,WeatherCatV1.15B25,2013-12-25 09:10:00,
2013-12-25 03:15:00,37.5,31.3,30.23,SSE,168,4.0,5.0,78,0.00,,,0.00,WeatherCatV1.15B25,2013-12-25 09:15:00,
2013-12-25 03:20:00,37.4,31.2,30.23,SSE,151,1.0,1.0,78,0.00,,,0.00,WeatherCatV1.15B25,2013-12-25 09:20:00,
2013-12-25 03:25:00,37.3,31.1,30.23,SSE,155,2.0,3.0,78,0.00,,,0.00,WeatherCatV1.15B25,2013-12-25 09:25:00,
2013-12-25 03:30:00,37.2,31.0,30.24,SE,130,1.0,3.0,78,0.00,,,0.00,WeatherCatV1.15B25,2013-12-25 09:30:00,
2013-12-25 03:35:00,37.0,31.1,30.24,SE,141,1.0,4.0,79,0.00,,,0.00,WeatherCatV1.15B25,2013-12-25 09:35:00,
2013-12-25 03:40:00,36.8,30.9,30.24,SE,145,2.0,4.0,79,0.00,,,0.00,WeatherCatV1.15B25,2013-12-25 09:40:00,
2013-12-25 03:45:00,36.5,30.9,30.24,SE,138,0.0,2.0,80,0.00,,,0.00,WeatherCatV1.15B25,2013-12-25 09:45:00,
2013-12-25 03:50:00,36.2,30.6,30.24,ESE,113,1.0,3.0,80,0.00,,,0.00,WeatherCatV1.15B25,2013-12-25 09:50:00,
2013-12-25 03:55:00,36.0,30.4,30.24,ESE,114,1.0,2.0,80,0.00,,,0.00,WeatherCatV1.15B25,2013-12-25 09:55:00,
2013-12-25 04:00:00,35.7,30.5,30.23,East,90,0.0,3.0,81,0.00,,,0.00,WeatherCatV1.15B25,2013-12-25 10:00:00,
2013-12-25 04:05:00,35.5,30.3,30.23,East,101,2.0,2.0,81,0.00,,,0.00,WeatherCatV1.15B25,2013-12-25 10:05:00,
2013-12-25 04:10:00,35.2,30.3,30.23,ESE,114,2.0,2.0,82,0.00,,,0.00,WeatherCatV1.15B25,2013-12-25 10:10:00,
2013-12-25 04:15:00,35.0,30.1,30.23,SSE,148,1.0,4.0,82,0.00,,,0.00,WeatherCatV1.15B25,2013-12-25 10:15:00,
2013-12-25 04:20:00,34.8,30.2,30.23,ESE,113,2.0,4.0,83,0.00,,,0.00,WeatherCatV1.15B25,2013-12-25 10:20:00,
2013-12-25 04:25:00,34.6,30.0,30.23,ESE,123,3.0,3.0,83,0.00,,,0.00,WeatherCatV1.15B25,2013-12-25 10:25:00,
2013-12-25 04:30:00,34.5,30.2,30.23,SE,138,4.0,4.0,84,0.00,,,0.00,WeatherCatV1.15B25,2013-12-25 10:30:00,
2013-12-25 04:35:00,34.3,30.0,30.23,SSE,148,3.0,4.0,84,0.00,,,0.00,WeatherCatV1.15B25,2013-12-25 10:35:00,
2013-12-25 04:40:00,34.2,29.9,30.23,SSE,152,1.0,2.0,84,0.00,,,0.00,WeatherCatV1.15B25,2013-12-25 10:40:00,
2013-12-25 04:45:00,34.1,30.1,30.23,SE,136,1.0,3.0,85,0.00,,,0.00,WeatherCatV1.15B25,2013-12-25 10:45:00,
2013-12-25 04:50:00,34.1,30.1,30.23,SE,141,2.0,4.0,85,0.00,,,0.00,WeatherCatV1.15B25,2013-12-25 10:50:00,
2013-12-25 04:55:00,34.1,30.1,30.23,SSE,150,2.0,3.0,85,0.00,,,0.00,WeatherCatV1.15B25,2013-12-25 10:55:00,
2013-12-25 05:00:00,34.0,30.0,30.23,SE,144,1.0,2.0,85,0.00,,,0.00,WeatherCatV1.15B25,2013-12-25 11:00:00,
2013-12-25 05:05:00,34.0,30.0,30.23,SE,146,2.0,2.0,85,0.00,,,0.00,WeatherCatV1.15B25,2013-12-25 11:05:00,
2013-12-25 05:10:00,33.9,29.9,30.23,SE,133,3.0,3.0,85,0.00,,,0.00,WeatherCatV1.15B25,2013-12-25 11:10:00,
2013-12-25 05:15:00,33.8,29.8,30.23,SE,139,1.0,2.0,85,0.00,,,0.00,WeatherCatV1.15B25,2013-12-25 11:15:00,
2013-12-25 05:20:00,33.8,30.1,30.23,SSE,156,1.0,4.0,86,0.00,,,0.00,WeatherCatV1.15B25,2013-12-25 11:20:00,
2013-12-25 05:25:00,33.7,30.0,30.23,ESE,119,2.0,3.0,86,0.00,,,0.00,WeatherCatV1.15B25,2013-12-25 11:25:00,
2013-12-25 05:30:00,33.7,30.0,30.23,SE,132,2.0,4.0,86,0.00,,,0.00,WeatherCatV1.15B25,2013-12-25 11:30:00,
2013-12-25 05:35:00,33.7,30.0,30.23,South,180,1.0,4.0,86,0.00,,,0.00,WeatherCatV1.15B25,2013-12-25 11:35:00,
2013-12-25 05:40:00,33.7,30.2,30.23,SSE,156,2.0,4.0,87,0.00,,,0.00,WeatherCatV1.15B25,2013-12-25 11:40:00,
2013-12-25 05:45:00,33.7,30.2,30.23,SSE,151,3.0,4.0,87,0.00,,,0.00,WeatherCatV1.15B25,2013-12-25 11:45:00,
2013-12-25 05:50:00,33.9,30.4,30.23,SSE,165,4.0,5.0,87,0.00,,,0.00,WeatherCatV1.15B25,2013-12-25 11:50:00,
2013-12-25 05:55:00,34.2,30.5,30.23,SSE,160,2.0,4.0,86,0.00,,,0.00,WeatherCatV1.15B25,2013-12-25 11:55:00,
2013-12-25 06:00:00,34.3,30.6,30.23,SSE,153,2.0,6.0,86,0.00,,,0.00,WeatherCatV1.15B25,2013-12-25 12:00:00,
2013-12-25 06:05:00,34.4,30.7,30.23,ESE,123,1.0,2.0,86,0.00,,,0.00,WeatherCatV1.15B25,2013-12-25 12:05:00,
2013-12-25 06:10:00,34.4,30.4,30.23,SSE,158,2.0,2.0,85,0.00,,,0.00,WeatherCatV1.15B25,2013-12-25 12:10:00,
2013-12-25 06:15:00,34.4,30.4,30.24,SSE,158,0.0,1.0,85,0.00,,,0.00,WeatherCatV1.15B25,2013-12-25 12:15:00,
2013-12-25 06:20:00,34.3,30.3,30.24,SSE,158,0.0,1.0,85,0.00,,,0.00,WeatherCatV1.15B25,2013-12-25 12:20:00,
2013-12-25 06:25:00,34.3,30.3,30.24,SSE,158,0.0,0.0,85,0.00,,,0.00,WeatherCatV1.15B25,2013-12-25 12:25:00,
2013-12-25 06:30:00,34.2,30.5,30.25,SSE,158,0.0,0.0,86,0.00,,,0.00,WeatherCatV1.15B25,2013-12-25 12:30:00,
2013-12-25 06:35:00,34.2,30.5,30.25,SSE,158,0.0,0.0,86,0.00,,,0.00,WeatherCatV1.15B25,2013-12-25 12:35:00,
2013-12-25 06:40:00,34.2,30.7,30.25,SSE,158,0.0,0.0,87,0.00,,,0.00,WeatherCatV1.15B25,2013-12-25 12:40:00,
2013-12-25 06:45:00,34.3,30.8,30.25,SSE,158,0.0,0.0,87,0.00,,,0.00,WeatherCatV1.15B25,2013-12-25 12:45:00,
2013-12-25 06:50:00,34.3,30.8,30.25,SSE,162,0.0,0.0,87,0.00,,,0.00,WeatherCatV1.15B25,2013-12-25 12:50:00,
2013-12-25 06:55:00,34.4,30.9,30.25,SSE,162,0.0,0.0,87,0.00,,,0.00,WeatherCatV1.15B25,2013-12-25 12:55:00,
2013-12-25 07:00:00,34.4,31.2,30.26,SSE,162,0.0,0.0,88,0.00,,,0.00,WeatherCatV1.15B25,2013-12-25 13:00:00,
2013-12-25 07:05:00,34.6,31.4,30.26,SSE,162,0.0,1.0,88,0.00,,,0.00,WeatherCatV1.15B25,2013-12-25 13:05:00,
2013-12-25 07:10:00,34.8,31.6,30.26,SSE,162,0.0,1.0,88,0.00,,,0.00,WeatherCatV1.15B25,2013-12-25 13:10:00,
2013-12-25 07:15:00,34.9,31.7,30.26,SSE,162,0.0,0.0,88,0.00,,,0.00,WeatherCatV1.15B25,2013-12-25 13:15:00,
2013-12-25 07:20:00,35.1,31.9,30.26,SSE,162,0.0,0.0,88,0.00,,,0.00,WeatherCatV1.15B25,2013-12-25 13:20:00,
2013-12-25 07:25:00,35.2,32.0,30.26,SSE,162,0.0,0.0,88,0.00,,,0.00,WeatherCatV1.15B25,2013-12-25 13:25:00,
2013-12-25 07:30:00,35.5,32.3,30.26,SSE,162,0.0,0.0,88,0.00,,,0.00,WeatherCatV1.15B25,2013-12-25 13:30:00,
2013-12-25 07:35:00,35.7,32.5,30.26,SSE,162,0.0,0.0,88,0.00,,,0.00,WeatherCatV1.15B25,2013-12-25 13:35:00,
2013-12-25 07:40:00,35.9,32.7,30.26,SSE,162,0.0,0.0,88,0.00,,,0.00,WeatherCatV1.15B25,2013-12-25 13:40:00,
2013-12-25 07:45:00,36.1,32.9,30.27,SSE,162,0.0,0.0,88,0.00,,,0.00,WeatherCatV1.15B25,2013-12-25 13:45:00,
2013-12-25 07:50:00,36.4,33.2,30.27,SSE,162,0.0,2.0,88,0.00,,,0.00,WeatherCatV1.15B25,2013-12-25 13:50:00,
2013-12-25 07:55:00,36.7,33.5,30.27,SSE,163,2.0,2.0,88,0.00,,,0.00,WeatherCatV1.15B25,2013-12-25 13:55:00,
2013-12-25 08:00:00,37.0,33.8,30.26,SSE,158,1.0,3.0,88,0.00,,,0.00,WeatherCatV1.15B25,2013-12-25 14:00:00,
2013-12-25 08:05:00,37.2,33.7,30.26,SSE,155,1.0,3.0,87,0.00,,,0.00,WeatherCatV1.15B25,2013-12-25 14:05:00,
2013-12-25 08:10:00,37.5,34.0,30.26,South,171,2.0,2.0,87,0.00,,,0.00,WeatherCatV1.15B25,2013-12-25 14:10:00,
2013-12-25 08:15:00,37.8,34.0,30.27,South,182,2.0,3.0,86,0.00,,,0.00,WeatherCatV1.15B25,2013-12-25 14:15:00,
2013-12-25 08:20:00,38.0,34.2,30.27,South,177,2.0,3.0,86,0.00,,,0.00,WeatherCatV1.15B25,2013-12-25 14:20:00,
2013-12-25 08:25:00,38.2,34.1,30.27,South,188,1.0,2.0,85,0.00,,,0.00,WeatherCatV1.15B25,2013-12-25 14:25:00,
2013-12-25 08:30:00,38.4,34.3,30.27,SSE,160,2.0,3.0,85,0.00,,,0.00,WeatherCatV1.15B25,2013-12-25 14:30:00,
2013-12-25 08:35:00,38.6,33.9,30.27,SSW,209,2.0,2.0,83,0.00,,,0.00,WeatherCatV1.15B25,2013-12-25 14:35:00,
2013-12-25 08:40:00,38.8,34.1,30.27,South,185,2.0,4.0,83,0.00,,,0.00,WeatherCatV1.15B25,2013-12-25 14:40:00,
2013-12-25 08:45:00,39.0,34.0,30.27,SSW,193,2.0,6.0,82,0.00,,,0.00,WeatherCatV1.15B25,2013-12-25 14:45:00,
2013-12-25 08:50:00,39.1,34.1,30.27,SSW,202,3.0,5.0,82,0.00,,,0.00,WeatherCatV1.15B25,2013-12-25 14:50:00,
2013-12-25 08:55:00,39.3,34.3,30.27,SSE,166,3.0,4.0,82,0.00,,,0.00,WeatherCatV1.15B25,2013-12-25 14:55:00,
2013-12-25 09:00:00,39.6,34.6,30.27,SSE,158,4.0,6.0,82,0.00,,,0.00,WeatherCatV1.15B25,2013-12-25 15:00:00,
2013-12-25 09:05:00,39.9,34.6,30.27,South,178,3.0,6.0,81,0.00,,,0.00,WeatherCatV1.15B25,2013-12-25 15:05:00,
2013-12-25 09:10:00,40.0,34.6,30.27,SSW,194,2.0,5.0,81,0.00,,,0.00,WeatherCatV1.15B25,2013-12-25 15:10:00,
2013-12-25 09:15:00,40.2,34.8,30.28,South,188,6.0,7.0,81,0.00,,,0.00,WeatherCatV1.15B25,2013-12-25 15:15:00,
2013-12-25 09:20:00,40.6,35.2,30.28,SSW,197,7.0,9.0,81,0.00,,,0.00,WeatherCatV1.15B25,2013-12-25 15:20:00,
2013-12-25 09:25:00,40.9,35.2,30.28,SW,217,5.0,7.0,80,0.00,,,0.00,WeatherCatV1.15B25,2013-12-25 15:25:00,
2013-12-25 09:30:00,41.3,35.3,30.28,SSW,200,4.0,7.0,79,0.00,,,0.00,WeatherCatV1.15B25,2013-12-25 15:30:00,
2013-12-25 09:35:00,41.7,36.0,30.28,SSW,208,2.0,4.0,80,0.00,,,0.00,WeatherCatV1.15B25,2013-12-25 15:35:00,
2013-12-25 09:40:00,42.1,36.1,30.28,SSW,198,6.0,8.0,79,0.00,,,0.00,WeatherCatV1.15B25,2013-12-25 15:40:00,
2013-12-25 09:45:00,42.5,36.5,30.28,SSE,165,4.0,9.0,79,0.00,,,0.00,WeatherCatV1.15B25,2013-12-25 15:45:00,
2013-12-25 09:50:00,42.9,36.5,30.28,South,178,6.0,10.0,78,0.00,,,0.00,WeatherCatV1.15B25,2013-12-25 15:50:00,
2013-12-25 09:55:00,43.1,36.4,30.28,SSE,164,3.0,5.0,77,0.00,,,0.00,WeatherCatV1.15B25,2013-12-25 15:55:00,
2013-12-25 10:00:00,43.4,37.0,30.28,South,181,3.0,5.0,78,0.00,,,0.00,WeatherCatV1.15B25,2013-12-25 16:00:00,
2013-12-25 10:05:00,43.8,37.1,30.28,SSW,192,6.0,9.0,77,0.00,,,0.00,WeatherCatV1.15B25,2013-12-25 16:05:00,
2013-12-25 10:10:00,44.3,37.6,30.28,SW,223,2.0,4.0,77,0.00,,,0.00,WeatherCatV1.15B25,2013-12-25 16:10:00,
2013-12-25 10:15:00,44.9,38.1,30.28,SSW,209,3.0,9.0,77,0.00,,,0.00,WeatherCatV1.15B25,2013-12-25 16:15:00,
2013-12-25 10:20:00,45.4,37.9,30.28,SSW,194,3.0,5.0,75,0.00,,,0.00,WeatherCatV1.15B25,2013-12-25 16:20:00,
2013-12-25 10:25:00,45.8,38.0,30.28,SSW,212,4.0,7.0,74,0.00,,,0.00,WeatherCatV1.15B25,2013-12-25 16:25:00,
2013-12-25 10:30:00,46.2,38.7,30.28,WSW,244,9.0,11.0,75,0.00,,,0.00,WeatherCatV1.15B25,2013-12-25 16:30:00,
2013-12-25 10:35:00,46.4,38.6,30.28,SW,221,7.0,14.0,74,0.00,,,0.00,WeatherCatV1.15B25,2013-12-25 16:35:00,
2013-12-25 10:40:00,46.9,39.1,30.28,SW,222,12.0,13.0,74,0.00,,,0.00,WeatherCatV1.15B25,2013-12-25 16:40:00,
2013-12-25 10:45:00,47.2,39.0,30.28,SE,132,5.0,11.0,73,0.00,,,0.00,WeatherCatV1.15B25,2013-12-25 16:45:00,
2013-12-25 10:50:00,47.6,39.4,30.28,SSW,200,6.0,8.0,73,0.00,,,0.00,WeatherCatV1.15B25,2013-12-25 16:50:00,
2013-12-25 10:55:00,48.1,39.1,30.28,SSW,204,5.0,7.0,71,0.00,,,0.00,WeatherCatV1.15B25,2013-12-25 16:55:00,
2013-12-25 11:00:00,48.6,40.0,30.28,SSW,207,6.0,10.0,72,0.00,,,0.00,WeatherCatV1.15B25,2013-12-25 17:00:00,
2013-12-25 11:05:00,49.1,39.4,30.28,SW,219,7.0,10.0,69,0.00,,,0.00,WeatherCatV1.15B25,2013-12-25 17:05:00,
2013-12-25 11:10:00,49.3,39.9,30.28,SW,232,4.0,7.0,70,0.00,,,0.00,WeatherCatV1.15B25,2013-12-25 17:10:00,
2013-12-25 11:15:00,49.8,39.7,30.28,SW,221,4.0,8.0,68,0.00,,,0.00,WeatherCatV1.15B25,2013-12-25 17:15:00,
2013-12-25 11:20:00,50.1,40.0,30.28,SSW,200,6.0,8.0,68,0.00,,,0.00,WeatherCatV1.15B25,2013-12-25 17:20:00,
2013-12-25 11:25:00,50.1,39.6,30.28,SW,225,2.0,6.0,67,0.00,,,0.00,WeatherCatV1.15B25,2013-12-25 17:25:00,
2013-12-25 11:30:00,50.3,40.5,30.28,WSW,254,2.0,4.0,69,0.00,,,0.00,WeatherCatV1.15B25,2013-12-25 17:30:00,
2013-12-25 11:35:00,51.3,41.1,30.28,SW,226,9.0,9.0,68,0.00,,,0.00,WeatherCatV1.15B25,2013-12-25 17:35:00,
2013-12-25 11:40:00,51.8,40.8,30.28,WSW,250,5.0,9.0,66,0.00,,,0.00,WeatherCatV1.15B25,2013-12-25 17:40:00,
2013-12-25 11:45:00,51.9,40.9,30.28,SSW,198,5.0,9.0,66,0.00,,,0.00,WeatherCatV1.15B25,2013-12-25 17:45:00,
2013-12-25 11:50:00,52.3,41.3,30.28,WSW,239,7.0,10.0,66,0.00,,,0.00,WeatherCatV1.15B25,2013-12-25 17:50:00,
2013-12-25 11:55:00,53.0,41.9,30.28,SW,236,3.0,6.0,66,0.00,,,0.00,WeatherCatV1.15B25,2013-12-25 17:55:00,
2013-12-25 12:00:00,53.7,41.8,30.27,SSW,198,4.0,6.0,64,0.00,,,0.00,WeatherCatV1.15B25,2013-12-25 18:00:00,
2013-12-25 12:05:00,53.9,41.6,30.27,SW,215,5.0,10.0,63,0.00,,,0.00,WeatherCatV1.15B25,2013-12-25 18:05:00,
2013-12-25 12:10:00,54.2,42.3,30.27,SSW,204,8.0,9.0,64,0.00,,,0.00,WeatherCatV1.15B25,2013-12-25 18:10:00,
2013-12-25 12:15:00,54.7,42.4,30.26,SW,219,3.0,7.0,63,0.00,,,0.00,WeatherCatV1.15B25,2013-12-25 18:15:00,
2013-12-25 12:20:00,55.0,42.2,30.26,SW,214,3.0,7.0,62,0.00,,,0.00,WeatherCatV1.15B25,2013-12-25 18:20:00,
2013-12-25 12:25:00,55.1,42.3,30.26,SSE,159,3.0,6.0,62,0.00,,,0.00,WeatherCatV1.15B25,2013-12-25 18:25:00,
2013-12-25 12:30:00,55.5,42.3,30.25,South,179,3.0,7.0,61,0.00,,,0.00,WeatherCatV1.15B25,2013-12-25 18:30:00,
2013-12-25 12:35:00,55.7,42.9,30.25,SW,234,4.0,6.0,62,0.00,,,0.00,WeatherCatV1.15B25,2013-12-25 18:35:00,
2013-12-25 12:40:00,55.9,42.6,30.25,SSW,199,2.0,3.0,61,0.00,,,0.00,WeatherCatV1.15B25,2013-12-25 18:40:00,
2013-12-25 12:45:00,56.2,42.9,30.25,South,191,4.0,6.0,61,0.00,,,0.00,WeatherCatV1.15B25,2013-12-25 18:45:00,
2013-12-25 12:50:00,56.3,43.4,30.25,SW,236,6.0,9.0,62,0.00,,,0.00,WeatherCatV1.15B25,2013-12-25 18:50:00,
2013-12-25 12:55:00,56.5,43.2,30.25,SW,225,3.0,5.0,61,0.00,,,0.00,WeatherCatV1.15B25,2013-12-25 18:55:00,
2013-12-25 13:00:00,56.8,43.5,30.24,WSW,249,4.0,9.0,61,0.00,,,0.00,WeatherCatV1.15B25,2013-12-25 19:00:00,
2013-12-25 13:05:00,57.1,43.8,30.24,South,175,2.0,5.0,61,0.00,,,0.00,WeatherCatV1.15B25,2013-12-25 19:05:00,
2013-12-25 13:10:00,57.2,43.4,30.24,WSW,242,5.0,8.0,60,0.00,,,0.00,WeatherCatV1.15B25,2013-12-25 19:10:00,
2013-12-25 13:15:00,57.2,43.9,30.24,South,185,7.0,7.0,61,0.00,,,0.00,WeatherCatV1.15B25,2013-12-25 19:15:00,
2013-12-25 13:20:00,57.2,43.9,30.24,WNW,291,6.0,6.0,61,0.00,,,0.00,WeatherCatV1.15B25,2013-12-25 19:20:00,
2013-12-25 13:25:00,57.4,44.1,30.24,SW,221,2.0,6.0,61,0.00,,,0.00,WeatherCatV1.15B25,2013-12-25 19:25:00,
2013-12-25 13:30:00,57.5,43.7,30.23,WSW,239,2.0,6.0,60,0.00,,,0.00,WeatherCatV1.15B25,2013-12-25 19:30:00,
2013-12-25 13:35:00,57.8,44.4,30.23,SSW,203,5.0,6.0,61,0.00,,,0.00,WeatherCatV1.15B25,2013-12-25 19:35:00,
2013-12-25 13:40:00,58.0,44.2,30.23,SSW,211,1.0,7.0,60,0.00,,,0.00,WeatherCatV1.15B25,2013-12-25 19:40:00,
2013-12-25 13:44:00,58.1,44.3,30.22,SSE,161,5.0,9.0,60,0.00,,,0.00,WeatherCatV1.15B25,2013-12-25 19:44:00,
2013-12-25 13:49:00,58.2,44.4,30.22,SSW,209,1.0,4.0,60,0.00,,,0.00,WeatherCatV1.15B25,2013-12-25 19:49:00,
2013-12-25 13:54:00,58.2,44.4,30.22,South,182,4.0,5.0,60,0.00,,,0.00,WeatherCatV1.15B25,2013-12-25 19:54:00,
2013-12-25 13:59:00,58.4,45.0,30.22,WSW,237,3.0,3.0,61,0.00,,,0.00,WeatherCatV1.15B25,2013-12-25 19:59:00,
2013-12-25 14:04:00,58.8,44.9,30.22,SW,215,3.0,5.0,60,0.00,,,0.00,WeatherCatV1.15B25,2013-12-25 20:04:00,
2013-12-25 14:09:00,59.1,43.9,30.22,SSW,201,2.0,3.0,57,0.00,,,0.00,WeatherCatV1.15B25,2013-12-25 20:09:00,
2013-12-25 14:14:00,59.3,45.4,30.22,WSW,252,2.0,3.0,60,0.00,,,0.00,WeatherCatV1.15B25,2013-12-25 20:14:00,
2013-12-25 14:19:00,59.1,44.3,30.22,SW,232,0.0,1.0,58,0.00,,,0.00,WeatherCatV1.15B25,2013-12-25 20:19:00,
2013-12-25 14:24:00,58.9,44.1,30.22,West,262,1.0,2.0,58,0.00,,,0.00,WeatherCatV1.15B25,2013-12-25 20:24:00,
2013-12-25 14:29:00,58.8,44.5,30.22,NE,38,1.0,2.0,59,0.00,,,0.00,WeatherCatV1.15B25,2013-12-25 20:29:00,
2013-12-25 14:34:00,59.0,44.2,30.22,West,281,1.0,2.0,58,0.00,,,0.00,WeatherCatV1.15B25,2013-12-25 20:34:00,
2013-12-25 14:39:00,59.1,44.3,30.22,West,270,1.0,5.0,58,0.00,,,0.00,WeatherCatV1.15B25,2013-12-25 20:39:00,
2013-12-25 14:44:00,59.2,44.9,30.22,NNW,341,3.0,3.0,59,0.00,,,0.00,WeatherCatV1.15B25,2013-12-25 20:44:00,
2013-12-25 14:49:00,59.1,44.3,30.22,WNW,296,2.0,3.0,58,0.00,,,0.00,WeatherCatV1.15B25,2013-12-25 20:49:00,
2013-12-25 14:54:00,58.9,44.6,30.22,WNW,295,1.0,3.0,59,0.00,,,0.00,WeatherCatV1.15B25,2013-12-25 20:54:00,
2013-12-25 14:59:00,58.7,44.4,30.22,WNW,290,2.0,2.0,59,0.00,,,0.00,WeatherCatV1.15B25,2013-12-25 20:59:00,
2013-12-25 15:04:00,58.5,44.7,30.22,West,281,1.0,2.0,60,0.00,,,0.00,WeatherCatV1.15B25,2013-12-25 21:04:00,
2013-12-25 15:09:00,58.3,44.0,30.22,WNW,294,0.0,2.0,59,0.00,,,0.00,WeatherCatV1.15B25,2013-12-25 21:09:00,
2013-12-25 15:14:00,58.2,43.9,30.22,North,0,1.0,3.0,59,0.00,,,0.00,WeatherCatV1.15B25,2013-12-25 21:14:00,
2013-12-25 15:19:00,58.3,44.0,30.22,NNW,336,1.0,3.0,59,0.00,,,0.00,WeatherCatV1.15B25,2013-12-25 21:19:00,
2013-12-25 15:24:00,58.5,44.2,30.22,NNE,17,5.0,5.0,59,0.00,,,0.00,WeatherCatV1.15B25,2013-12-25 21:24:00,
2013-12-25 15:29:00,58.7,43.0,30.23,North,5,2.0,4.0,56,0.00,,,0.00,WeatherCatV1.15B25,2013-12-25 21:29:00,
2013-12-25 15:34:00,58.9,43.2,30.23,NNE,25,0.0,3.0,56,0.00,,,0.00,WeatherCatV1.15B25,2013-12-25 21:34:00,
2013-12-25 15:39:00,59.0,43.8,30.23,NNW,346,2.0,4.0,57,0.00,,,0.00,WeatherCatV1.15B25,2013-12-25 21:39:00,
2013-12-25 15:44:00,58.5,43.8,30.24,North,5,1.0,5.0,58,0.00,,,0.00,WeatherCatV1.15B25,2013-12-25 21:44:00,
2013-12-25 15:49:00,58.0,43.3,30.24,North,5,5.0,7.0,58,0.00,,,0.00,WeatherCatV1.15B25,2013-12-25 21:49:00,
2013-12-25 15:54:00,57.4,43.2,30.24,NW,309,4.0,8.0,59,0.00,,,0.00,WeatherCatV1.15B25,2013-12-25 21:54:00,
2013-12-25 15:59:00,56.6,42.9,30.24,North,0,7.0,11.0,60,0.00,,,0.00,WeatherCatV1.15B25,2013-12-25 21:59:00,
2013-12-25 16:04:00,55.9,42.6,30.24,NNW,344,7.0,10.0,61,0.00,,,0.00,WeatherCatV1.15B25,2013-12-25 22:04:00,
2013-12-25 16:09:00,55.3,42.5,30.24,NNE,31,9.0,9.0,62,0.00,,,0.00,WeatherCatV1.15B25,2013-12-25 22:09:00,
2013-12-25 16:14:00,54.8,42.4,30.25,NNE,22,3.0,10.0,63,0.00,,,0.00,WeatherCatV1.15B25,2013-12-25 22:14:00,
2013-12-25 16:19:00,54.2,41.5,30.25,North,5,5.0,7.0,62,0.00,,,0.00,WeatherCatV1.15B25,2013-12-25 22:19:00,
2013-12-25 16:24:00,53.9,41.6,30.25,NNW,345,9.0,11.0,63,0.00,,,0.00,WeatherCatV1.15B25,2013-12-25 22:24:00,
2013-12-25 16:29:00,53.5,41.2,30.26,NNE,17,6.0,12.0,63,0.00,,,0.00,WeatherCatV1.15B25,2013-12-25 22:29:00,
2013-12-25 16:34:00,53.3,41.0,30.26,NW,326,3.0,5.0,63,0.00,,,0.00,WeatherCatV1.15B25,2013-12-25 22:34:00,
2013-12-25 16:39:00,53.1,41.2,30.26,North,5,3.0,6.0,64,0.00,,,0.00,WeatherCatV1.15B25,2013-12-25 22:39:00,
2013-12-25 16:44:00,52.9,40.2,30.26,North,0,5.0,7.0,62,0.00,,,0.00,WeatherCatV1.15B25,2013-12-25 22:44:00,
2013-12-25 16:49:00,52.7,40.0,30.26,NNE,13,9.0,14.0,62,0.00,,,0.00,WeatherCatV1.15B25,2013-12-25 22:49:00,
2013-12-25 16:54:00,52.5,40.7,30.26,NNE,26,5.0,10.0,64,0.00,,,0.00,WeatherCatV1.15B25,2013-12-25 22:54:00,
2013-12-25 16:59:00,52.3,40.9,30.26,North,5,4.0,4.0,65,0.00,,,0.00,WeatherCatV1.15B25,2013-12-25 22:59:00,
2013-12-25 17:04:00,52.0,41.0,30.26,NNE,28,5.0,10.0,66,0.00,,,0.00,WeatherCatV1.15B25,2013-12-25 23:04:00,
2013-12-25 17:09:00,51.9,40.9,30.26,North,11,2.0,4.0,66,0.00,,,0.00,WeatherCatV1.15B25,2013-12-25 23:09:00,
2013-12-25 17:14:00,51.8,40.8,30.27,NNE,21,3.0,5.0,66,0.00,,,0.00,WeatherCatV1.15B25,2013-12-25 23:14:00,
2013-12-25 17:19:00,51.7,41.1,30.27,North,351,6.0,6.0,67,0.00,,,0.00,WeatherCatV1.15B25,2013-12-25 23:19:00,
2013-12-25 17:24:00,51.6,41.0,30.27,NNW,344,4.0,7.0,67,0.00,,,0.00,WeatherCatV1.15B25,2013-12-25 23:24:00,
2013-12-25 17:29:00,51.5,41.3,30.27,North,355,6.0,6.0,68,0.00,,,0.00,WeatherCatV1.15B25,2013-12-25 23:29:00,
2013-12-25 17:34:00,51.4,41.2,30.27,NNE,18,2.0,4.0,68,0.00,,,0.00,WeatherCatV1.15B25,2013-12-25 23:34:00,
2013-12-25 17:39:00,51.3,41.5,30.27,NNE,29,4.0,6.0,69,0.00,,,0.00,WeatherCatV1.15B25,2013-12-25 23:39:00,
2013-12-25 17:44:00,51.3,41.1,30.28,North,0,4.0,4.0,68,0.00,,,0.00,WeatherCatV1.15B25,2013-12-25 23:44:00,
2013-12-25 17:49:00,51.2,41.4,30.28,North,5,2.0,4.0,69,0.00,,,0.00,WeatherCatV1.15B25,2013-12-25 23:49:00,
2013-12-25 17:54:00,51.1,41.3,30.28,NNE,12,2.0,4.0,69,0.00,,,0.00,WeatherCatV1.15B25,2013-12-25 23:54:00,
2013-12-25 17:59:00,51.0,41.2,30.28,North,355,2.0,4.0,69,0.00,,,0.00,WeatherCatV1.15B25,2013-12-25 23:59:00,
2013-12-25 18:04:00,50.9,41.1,30.28,NNE,14,1.0,5.0,69,0.00,,,0.00,WeatherCatV1.15B25,2013-12-26 00:04:00,
2013-12-25 18:09:00,50.8,41.4,30.28,NNE,22,2.0,4.0,70,0.00,,,0.00,WeatherCatV1.15B25,2013-12-26 00:09:00,
2013-12-25 18:14:00,50.7,41.6,30.29,NNE,17,2.0,4.0,71,0.00,,,0.00,WeatherCatV1.15B25,2013-12-26 00:14:00,
2013-12-25 18:19:00,50.6,41.5,30.29,North,355,4.0,4.0,71,0.00,,,0.00,WeatherCatV1.15B25,2013-12-26 00:19:00,
2013-12-25 18:24:00,50.5,41.5,30.29,NE,34,1.0,5.0,71,0.00,,,0.00,WeatherCatV1.15B25,2013-12-26 00:24:00,
2013-12-25 18:29:00,50.4,41.0,30.29,NNW,327,6.0,6.0,70,0.00,,,0.00,WeatherCatV1.15B25,2013-12-26 00:29:00,
2013-12-25 18:34:00,50.2,40.4,30.29,North,351,4.0,7.0,69,0.00,,,0.00,WeatherCatV1.15B25,2013-12-26 00:34:00,
2013-12-25 18:39:00,50.1,40.0,30.29,North,5,2.0,7.0,68,0.00,,,0.00,WeatherCatV1.15B25,2013-12-26 00:39:00,
2013-12-25 18:44:00,49.9,39.8,30.30,NNE,22,4.0,10.0,68,0.00,,,0.00,WeatherCatV1.15B25,2013-12-26 00:44:00,
2013-12-25 18:49:00,49.6,39.5,30.30,NNE,21,5.0,7.0,68,0.00,,,0.00,WeatherCatV1.15B25,2013-12-26 00:49:00,
2013-12-25 18:54:00,49.3,39.2,30.30,North,350,3.0,6.0,68,0.00,,,0.00,WeatherCatV1.15B25,2013-12-26 00:54:00,
2013-12-25 18:59:00,48.8,38.7,30.30,North,355,5.0,5.0,68,0.00,,,0.00,WeatherCatV1.15B25,2013-12-26 00:59:00,
2013-12-25 19:04:00,48.5,38.4,30.30,North,355,4.0,7.0,68,0.00,,,0.00,WeatherCatV1.15B25,2013-12-26 01:04:00,
2013-12-25 19:09:00,48.2,38.1,30.30,North,355,2.0,7.0,68,0.00,,,0.00,WeatherCatV1.15B25,2013-12-26 01:09:00,
2013-12-25 19:14:00,47.9,37.9,30.31,North,355,3.0,5.0,68,0.00,,,0.00,WeatherCatV1.15B25,2013-12-26 01:14:00,
2013-12-25 19:19:00,47.7,38.0,30.31,NNE,13,2.0,4.0,69,0.00,,,0.00,WeatherCatV1.15B25,2013-12-26 01:19:00,
2013-12-25 19:24:00,47.4,37.7,30.31,North,0,2.0,3.0,69,0.00,,,0.00,WeatherCatV1.15B25,2013-12-26 01:24:00,
2013-12-25 19:29:00,47.2,37.9,30.31,NNE,25,1.0,4.0,70,0.00,,,0.00,WeatherCatV1.15B25,2013-12-26 01:29:00,
2013-12-25 19:34:00,47.0,37.7,30.31,North,5,1.0,3.0,70,0.00,,,0.00,WeatherCatV1.15B25,2013-12-26 01:34:00,
2013-12-25 19:39:00,46.7,37.8,30.31,North,355,3.0,4.0,71,0.00,,,0.00,WeatherCatV1.15B25,2013-12-26 01:39:00,
2013-12-25 19:44:00,46.3,37.8,30.32,North,5,3.0,11.0,72,0.00,,,0.00,WeatherCatV1.15B25,2013-12-26 01:44:00,
2013-12-25 19:49:00,46.0,37.5,30.32,North,351,14.0,14.0,72,0.00,,,0.00,WeatherCatV1.15B25,2013-12-26 01:49:00,
2013-12-25 19:54:00,45.6,37.5,30.32,North,0,10.0,10.0,73,0.00,,,0.00,WeatherCatV1.15B25,2013-12-26 01:54:00,
2013-12-25 19:59:00,45.3,37.2,30.32,NNE,23,5.0,13.0,73,0.00,,,0.00,WeatherCatV1.15B25,2013-12-26 01:59:00,
2013-12-25 20:04:00,44.9,37.1,30.32,North,0,10.0,11.0,74,0.00,,,0.00,WeatherCatV1.15B25,2013-12-26 02:04:00,
2013-12-25 20:09:00,44.6,37.2,30.32,North,5,7.0,11.0,75,0.00,,,0.00,WeatherCatV1.15B25,2013-12-26 02:09:00,
2013-12-25 20:14:00,44.4,37.0,30.32,NNE,14,5.0,6.0,75,0.00,,,0.00,WeatherCatV1.15B25,2013-12-26 02:14:00,
2013-12-25 20:19:00,44.1,37.0,30.32,North,350,4.0,9.0,76,0.00,,,0.00,WeatherCatV1.15B25,2013-12-26 02:19:00,
2013-12-25 20:24:00,43.9,37.2,30.32,North,355,5.0,10.0,77,0.00,,,0.00,WeatherCatV1.15B25,2013-12-26 02:24:00,
2013-12-25 20:29:00,43.7,37.0,30.33,NNE,22,3.0,10.0,77,0.00,,,0.00,WeatherCatV1.15B25,2013-12-26 02:29:00,
2013-12-25 20:34:00,43.5,37.1,30.33,North,355,3.0,3.0,78,0.00,,,0.00,WeatherCatV1.15B25,2013-12-26 02:34:00,
2013-12-25 20:39:00,43.3,37.2,30.33,North,5,4.0,7.0,79,0.00,,,0.00,WeatherCatV1.15B25,2013-12-26 02:39:00,
2013-12-25 20:44:00,43.1,37.0,30.34,North,355,5.0,5.0,79,0.00,,,0.00,WeatherCatV1.15B25,2013-12-26 02:44:00,
2013-12-25 20:49:00,42.9,36.8,30.34,NNE,26,3.0,5.0,79,0.00,,,0.00,WeatherCatV1.15B25,2013-12-26 02:49:00,
2013-12-25 20:54:00,42.8,37.1,30.34,North,355,5.0,6.0,80,0.00,,,0.00,WeatherCatV1.15B25,2013-12-26 02:54:00,
2013-12-25 20:59:00,42.7,37.0,30.34,NNE,13,2.0,7.0,80,0.00,,,0.00,WeatherCatV1.15B25,2013-12-26 02:59:00,
2013-12-25 21:04:00,42.5,36.8,30.34,NNE,26,4.0,7.0,80,0.00,,,0.00,WeatherCatV1.15B25,2013-12-26 03:04:00,
2013-12-25 21:09:00,42.4,36.7,30.34,North,355,6.0,10.0,80,0.00,,,0.00,WeatherCatV1.15B25,2013-12-26 03:09:00,
2013-12-25 21:14:00,42.3,36.9,30.34,NNE,15,3.0,4.0,81,0.00,,,0.00,WeatherCatV1.15B25,2013-12-26 03:14:00,
2013-12-25 21:19:00,42.2,36.8,30.34,North,5,2.0,3.0,81,0.00,,,0.00,WeatherCatV1.15B25,2013-12-26 03:19:00,
2013-12-25 21:24:00,42.0,36.6,30.34,North,0,2.0,4.0,81,0.00,,,0.00,WeatherCatV1.15B25,2013-12-26 03:24:00,
2013-12-25 21:29:00,41.9,36.8,30.34,North,350,2.0,6.0,82,0.00,,,0.00,WeatherCatV1.15B25,2013-12-26 03:29:00,
2013-12-25 21:34:00,41.7,36.6,30.34,NNW,348,2.0,2.0,82,0.00,,,0.00,WeatherCatV1.15B25,2013-12-26 03:34:00,
2013-12-25 21:39:00,41.5,36.4,30.34,North,5,3.0,4.0,82,0.00,,,0.00,WeatherCatV1.15B25,2013-12-26 03:39:00,
2013-12-25 21:44:00,41.4,36.3,30.34,NNW,344,4.0,5.0,82,0.00,,,0.00,WeatherCatV1.15B25,2013-12-26 03:44:00,
2013-12-25 21:49:00,41.2,36.4,30.34,NNW,335,4.0,4.0,83,0.00,,,0.00,WeatherCatV1.15B25,2013-12-26 03:49:00,
2013-12-25 21:54:00,41.1,36.3,30.34,North,0,3.0,9.0,83,0.00,,,0.00,WeatherCatV1.15B25,2013-12-26 03:54:00,
2013-12-25 21:59:00,41.0,36.2,30.35,NNE,23,4.0,6.0,83,0.00,,,0.00,WeatherCatV1.15B25,2013-12-26 03:59:00,
2013-12-25 22:04:00,40.9,36.1,30.35,NNW,338,5.0,8.0,83,0.00,,,0.00,WeatherCatV1.15B25,2013-12-26 04:04:00,
2013-12-25 22:09:00,40.7,35.9,30.35,NNE,28,3.0,5.0,83,0.00,,,0.00,WeatherCatV1.15B25,2013-12-26 04:09:00,
2013-12-25 22:14:00,40.6,35.8,30.35,North,350,5.0,9.0,83,0.00,,,0.00,WeatherCatV1.15B25,2013-12-26 04:14:00,
2013-12-25 22:19:00,40.5,36.1,30.35,NNE,17,4.0,8.0,84,0.00,,,0.00,WeatherCatV1.15B25,2013-12-26 04:19:00,
2013-12-25 22:24:00,40.5,36.1,30.35,NNW,344,5.0,8.0,84,0.00,,,0.00,WeatherCatV1.15B25,2013-12-26 04:24:00,
2013-12-25 22:29:00,40.4,36.0,30.35,NNE,29,7.0,10.0,84,0.00,,,0.00,WeatherCatV1.15B25,2013-12-26 04:29:00,
2013-12-25 22:34:00,40.4,36.0,30.35,NNE,18,3.0,5.0,84,0.00,,,0.00,WeatherCatV1.15B25,2013-12-26 04:34:00,
2013-12-25 22:39:00,40.2,35.8,30.35,North,355,2.0,5.0,84,0.00,,,0.00,WeatherCatV1.15B25,2013-12-26 04:39:00,
2013-12-25 22:44:00,40.2,35.8,30.35,North,11,4.0,7.0,84,0.00,,,0.00,WeatherCatV1.15B25,2013-12-26 04:44:00,
2013-12-25 22:49:00,40.1,35.7,30.35,NNE,20,2.0,4.0,84,0.00,,,0.00,WeatherCatV1.15B25,2013-12-26 04:49:00,
2013-12-25 22:54:00,39.9,35.5,30.35,NNE,16,4.0,4.0,84,0.00,,,0.00,WeatherCatV1.15B25,2013-12-26 04:54:00,
2013-12-25 22:59:00,39.8,35.4,30.35,North,355,3.0,3.0,84,0.00,,,0.00,WeatherCatV1.15B25,2013-12-26 04:59:00,
2013-12-25 23:01:00,39.8,35.4,30.35,NE,36,1.0,5.0,84,0.00,,,0.00,WeatherCatV1.15B25,2013-12-26 05:01:00,
2013-12-25 23:02:00,39.8,35.4,30.35,North,355,3.0,4.0,84,0.00,,,0.00,WeatherCatV1.15B25,2013-12-26 05:02:00,
2013-12-25 23:07:00,39.7,35.3,30.35,NNE,17,2.0,5.0,84,0.00,,,0.00,WeatherCatV1.15B25,2013-12-26 05:07:00,
2013-12-25 23:12:00,39.6,35.2,30.35,North,5,2.0,4.0,84,0.00,,,0.00,WeatherCatV1.15B25,2013-12-26 05:12:00,
2013-12-25 23:17:00,39.5,35.1,30.34,NNE,19,4.0,6.0,84,0.00,,,0.00,WeatherCatV1.15B25,2013-12-26 05:17:00,
2013-12-25 23:22:00,39.4,35.3,30.34,North,0,2.0,5.0,85,0.00,,,0.00,WeatherCatV1.15B25,2013-12-26 05:22:00,
2013-12-25 23:27:00,39.3,35.2,30.34,NNE,19,2.0,4.0,85,0.00,,,0.00,WeatherCatV1.15B25,2013-12-26 05:27:00,
2013-12-25 23:32:00,39.1,35.0,30.34,North,5,3.0,7.0,85,0.00,,,0.00,WeatherCatV1.15B25,2013-12-26 05:32:00,
2013-12-25 23:37:00,39.0,35.2,30.34,North,0,3.0,4.0,86,0.00,,,0.00,WeatherCatV1.15B25,2013-12-26 05:37:00,
2013-12-25 23:42:00,39.0,35.2,30.34,North,5,2.0,5.0,86,0.00,,,0.00,WeatherCatV1.15B25,2013-12-26 05:42:00,
2013-12-25 23:47:00,38.9,35.1,30.34,NE,47,5.0,6.0,86,0.00,,,0.00,WeatherCatV1.15B25,2013-12-26 05:47:00,
2013-12-25 23:52:00,38.9,35.1,30.34,NNE,18,2.0,5.0,86,0.00,,,0.00,WeatherCatV1.15B25,2013-12-26 05:52:00,
2013-12-25 23:57:00,38.8,35.0,30.34,North,355,3.0,3.0,86,0.00,,,0.00,WeatherCatV1.15B25,2013-12-26 05:57:00,